Location: Newark
(52.2090°N, 4.1550°W)
Time: 17:54:53
(UTC+00:00)

Vanguard 1 Rocket - Visible Passes

Search period start: 15 September 2019 00:00
Search period end: 25 September 2019 00:00
Orbit: 652 x 4225 km, 34.3° (Epoch: 15 September)

Date Brightness Start Highest point End Pass type
(mag) Time Alt. Az. Time Alt. Az. Time Alt. Az.
15 Sep 10.0 18:50:39 10° SSW 19:02:49 23° SSE 19:10:46 10° ESE visible
15 Sep 9.4 21:18:18 10° SW 21:28:18 26° S 21:29:02 26° S visible
16 Sep 9.5 20:04:37 10° SW 20:17:00 28° S 20:21:48 20° SE visible
16 Sep 9.9 22:34:00 10° WSW 22:39:05 19° SW 22:39:05 19° SW visible
17 Sep 10.0 18:51:08 10° SW 19:05:15 28° S 19:14:03 10° ESE visible
17 Sep 9.4 21:19:59 10° WSW 21:30:47 28° SSW 21:31:49 27° S visible
18 Sep 9.6 20:05:53 10° SW 20:19:27 31° S 20:24:32 21° SE visible
18 Sep 10.0 22:36:10 10° WSW 22:41:49 19° SW 22:41:49 19° SW visible
19 Sep 10.0 18:51:56 10° SW 19:07:39 32° S 19:17:07 10° ESE visible
19 Sep 9.5 21:21:47 10° WSW 21:33:10 28° SSW 21:34:31 27° S visible
20 Sep 9.6 20:07:20 10° WSW 20:21:51 33° S 20:27:12 22° SE visible
20 Sep 10.1 22:38:28 10° WSW 22:44:29 19° SW 22:44:29 19° SW visible
21 Sep 10.1 18:52:58 10° SW 19:09:58 35° S 19:19:53 11° ESE visible
21 Sep 9.6 21:23:40 10° WSW 21:35:29 28° SSW 21:37:10 27° S visible
22 Sep 9.7 20:08:53 10° WSW 20:24:10 34° SSW 20:29:49 23° SSE visible
22 Sep 10.2 22:40:55 10° WSW 22:47:05 18° SW 22:47:05 18° SW visible
23 Sep 10.1 18:54:12 10° WSW 19:12:16 38° S 19:22:29 11° ESE visible
23 Sep 9.8 21:25:37 10° WSW 21:37:41 27° SSW 21:39:45 26° SSW visible
24 Sep 9.8 20:10:33 10° WSW 20:26:24 35° SSW 20:32:25 22° SSE visible
24 Sep 10.3 22:43:36 10° WSW 22:49:41 16° SW 22:49:41 16° SW visible
